Weather History for Seldovia, AK

Change the Weather History Date:

Monday, January 28, 2013

  Actual Average (PAHO) Record (PAHO)
Temperature  
Mean Temperature 14 °F -  
Max Temperature 21 °F 30 °F 45 °F (1936)
Min Temperature 6 °F 18 °F -24 °F (1989)
Degree Days  
Heating Degree Days 52    
Moisture  
Dew Point 6 °F    
Average Humidity 75    
Maximum Humidity 88    
Minimum Humidity 58    
Precipitation  
Precipitation 0.26 in - - ()
Sea Level Pressure  
Sea Level Pressure 29.91 in    
Wind  
Wind Speed 8 mph (NNE)    
Max Wind Speed 14 mph    
Max Gust Speed 44 mph    
Visibility 4 miles    
Events Fog , Snow    
Averages and records for this station are not official NWS values.
T = Trace of Precipitation, MM = Missing Value Source: NWS Daily Summary

Daily Weather History Graph

Daily Weather History Graph

Search for Another Location

Airport:

Trip Planner

Search our weather history database for the weather conditions in past years. The results will help you decide how hot, cold, wet, or windy it might be!

Date:

Astronomy

Jan. 28, 2013 Rise Set
Actual Time 9:25 AM AKST 5:15 PM AKST
Civil Twilight 8:38 AM AKST 6:02 PM AKST
Nautical Twilight 7:47 AM AKST 6:53 PM AKST
Astronomical Twilight 6:59 AM AKST 7:41 PM AKST
Moon 8:06 PM AKST (1/28) 9:16 AM AKST (1/28)
Length of Visible Light 9h 24m
Length of Day
7h 49m
Full, 97% of the Moon is Illuminated
Jan 28
Full
Feb 3
Last Quarter
Feb 9
New
Feb 17
First Quarter
Feb 25
Full

Hourly Weather History & Observations

Time (AKST) Temp. Windchill Dew Point Humidity Pressure Visibility Wind Dir Wind Speed Gust Speed Precip Events Conditions
12:53 AM 6.1 °F -7.8 °F -6.0 °F 58% 30.11 in 10.0 mi NNW 9.2 mph 18.4 mph N/A   Clear
1:53 AM 7.0 °F -7.5 °F -2.9 °F 64% 30.10 in 10.0 mi North 10.4 mph 18.4 mph N/A   Clear
3:53 AM 8.1 °F -2.0 °F -4.0 °F 58% 30.12 in 10.0 mi Variable 5.8 mph - N/A   Clear
4:53 AM 8.1 °F -0.5 °F -2.9 °F 61% 30.13 in 10.0 mi Variable 4.6 mph - N/A   Clear
5:53 AM 9.0 °F -7.3 °F -2.9 °F 59% 30.11 in 10.0 mi NNE 13.8 mph 19.6 mph N/A   Clear
6:53 AM 7.0 °F -5.7 °F -2.9 °F 64% 30.10 in 10.0 mi ENE 8.1 mph - N/A   Mostly Cloudy
7:42 AM 8.6 °F -1.3 °F -2.2 °F 62% 30.09 in 10.0 mi Variable 5.8 mph - N/A   Mostly Cloudy
7:53 AM 8.1 °F -2.0 °F -2.0 °F 64% 30.10 in 10.0 mi Variable 5.8 mph - N/A   Overcast
8:18 AM 8.6 °F -1.3 °F -2.2 °F 62% 30.08 in 10.0 mi Variable 5.8 mph - N/A   Scattered Clouds
8:53 AM 8.1 °F -2.0 °F -2.9 °F 61% 30.08 in 10.0 mi Variable 5.8 mph - N/A   Mostly Cloudy
9:53 AM 10.0 °F 1.8 °F -0.9 °F 61% 30.06 in 10.0 mi Variable 4.6 mph - N/A   Overcast
10:53 AM 9.0 °F -2.2 °F -2.0 °F 61% 30.05 in 10.0 mi WNW 6.9 mph - N/A   Overcast
11:53 AM 10.0 °F 0.4 °F -0.9 °F 61% 30.04 in 10.0 mi Variable 5.8 mph - N/A   Overcast
12:15 PM 10.4 °F -0.4 °F 1.4 °F 67% 30.03 in 2.5 mi NW 6.9 mph - 0.00 in Snow Light Snow
12:21 PM 10.4 °F -0.4 °F 1.4 °F 67% 30.04 in 0.8 mi NW 6.9 mph - 0.00 in Snow Light Snow
12:53 PM 10.0 °F 0.4 °F 3.0 °F 73% 30.02 in 1.0 mi Variable 5.8 mph - 0.01 in Snow Light Snow
1:01 PM 10.4 °F 2.2 °F 3.2 °F 73% 30.01 in 0.8 mi Variable 4.6 mph - 0.00 in Snow Light Snow
1:21 PM 10.4 °F 2.2 °F 3.2 °F 73% 30.00 in 0.5 mi North 4.6 mph - 0.01 in Snow Snow
1:43 PM 10.4 °F -3.3 °F 5.0 °F 79% 29.99 in 0.8 mi NNE 10.4 mph 20.7 mph 0.01 in Snow Light Snow
1:51 PM 10.4 °F -3.3 °F 5.0 °F 79% 29.99 in 1.0 mi NE 10.4 mph 20.7 mph 0.01 in Snow Light Snow
1:53 PM 10.9 °F -4.7 °F 5.0 °F 77% 29.99 in 1.2 mi NE 13.8 mph 24.2 mph 0.01 in Snow Light Snow
2:07 PM 10.4 °F -3.3 °F 5.0 °F 79% 29.98 in 0.5 mi NE 10.4 mph 20.7 mph 0.01 in Snow Snow
2:22 PM 12.2 °F 0.7 °F 6.8 °F 79% 29.96 in 0.5 mi North 8.1 mph 18.4 mph 0.01 in Snow Snow
2:53 PM 12.9 °F 1.6 °F 8.1 °F 81% 29.95 in 0.5 mi NNE 8.1 mph - 0.03 in Snow Snow
3:43 PM 14.0 °F 2.9 °F 8.6 °F 79% 29.92 in 0.5 mi NNE 8.1 mph 17.3 mph 0.01 in Snow Snow
3:51 PM 12.2 °F 0.7 °F 8.6 °F 85% 29.91 in 0.5 mi NNE 8.1 mph 16.1 mph 0.01 in Snow Snow
3:53 PM 14.0 °F 2.9 °F 8.1 °F 77% 29.92 in 0.5 mi North 8.1 mph 16.1 mph 0.02 in Snow Snow
4:18 PM 14.0 °F 2.0 °F 8.6 °F 79% 29.91 in 0.5 mi NE 9.2 mph - 0.01 in Snow Snow
4:53 PM 14.0 °F 1.2 °F 9.0 °F 80% 29.89 in 0.5 mi NNE 10.4 mph - 0.05 in Snow Snow
5:09 PM 14.0 °F 5.1 °F 10.4 °F 86% 29.90 in 0.2 mi NNE 5.8 mph 43.7 mph 0.02 in Fog , Snow Heavy Snow
5:37 PM 15.8 °F 8.6 °F 12.2 °F 86% 29.87 in 0.5 mi Variable 4.6 mph 19.6 mph 0.05 in Fog , Snow Snow
5:53 PM 15.1 °F 6.4 °F 10.9 °F 84% 29.86 in 0.5 mi NNW 5.8 mph - 0.06 in Fog , Snow Snow
6:04 PM 15.8 °F 6.1 °F 10.4 °F 79% 29.85 in 0.5 mi Variable 6.9 mph - 0.01 in Fog , Snow Snow
6:16 PM 15.8 °F 5.1 °F 10.4 °F 79% 29.84 in 0.5 mi North 8.1 mph - 0.02 in Fog , Snow Snow
6:49 PM 15.8 °F 4.2 °F 10.4 °F 79% 29.81 in 1.0 mi NNE 9.2 mph - 0.03 in Snow Light Snow
6:53 PM 16.0 °F 5.3 °F 10.9 °F 81% 29.81 in 1.0 mi NNE 8.1 mph - 0.03 in Snow Light Snow
7:18 PM 15.8 °F 5.1 °F 10.4 °F 79% 29.79 in 0.8 mi North 8.1 mph - 0.01 in Snow Light Snow
7:27 PM 15.8 °F 6.1 °F 12.2 °F 86% 29.79 in 0.8 mi Variable 6.9 mph 18.4 mph 0.01 in Snow Light Snow
7:53 PM 17.1 °F 6.6 °F 12.0 °F 81% 29.76 in 0.8 mi North 8.1 mph - 0.02 in Snow Light Snow
8:35 PM 17.6 °F 9.3 °F 12.2 °F 79% 29.74 in 1.8 mi Variable 5.8 mph - 0.00 in Snow Light Snow
8:53 PM 18.0 °F 8.7 °F 12.9 °F 81% 29.73 in 1.8 mi Variable 6.9 mph - 0.00 in Snow Light Snow
9:12 PM 17.6 °F 8.2 °F 12.2 °F 79% 29.72 in 2.0 mi Variable 6.9 mph - 0.00 in Snow Light Snow
9:29 PM 17.6 °F 8.2 °F 12.2 °F 79% 29.71 in 3.0 mi Variable 6.9 mph - 0.00 in Snow Light Snow
9:53 PM 17.1 °F 5.8 °F 14.0 °F 88% 29.70 in 3.0 mi SSW 9.2 mph - 0.00 in Snow Light Snow
10:01 PM 17.6 °F 7.3 °F 14.0 °F 86% 29.70 in 4.0 mi SSW 8.1 mph - 0.00 in Snow Light Snow
10:53 PM 19.0 °F 13.9 °F 15.1 °F 85% 29.68 in 3.0 mi Variable 3.5 mph - 0.00 in Snow Light Snow
11:00 PM 19.4 °F 11.5 °F 15.8 °F 86% 29.67 in 2.0 mi Variable 5.8 mph - 0.01 in Snow Light Snow
11:09 PM 19.4 °F 11.5 °F 15.8 °F 86% 29.67 in 1.5 mi Variable 5.8 mph - 0.01 in Snow Light Snow
11:51 PM 21.2 °F 13.6 °F 17.6 °F 86% 29.64 in 1.2 mi Variable 5.8 mph - 0.02 in Snow Light Snow
11:53 PM 21.0 °F 13.4 °F 17.1 °F 85% 29.64 in 1.2 mi North 5.8 mph - 0.03 in Snow Light Snow